Location: Diguira
(13.1838°N, 4.9109°W)
Time: 15:16:24
(UTC+00:00)

Intelsat 5-1 Rocket - Pass Details

Date: 18 September 2020
Orbit: 310 x 7605 km, 23.9° (Epoch: 19 October)

Event Time Altitude Azimuth Distance (km) Brightness Sun altitude
Rises 19:55:19 0° 249° (WSW) 9,445 9.0 -24.4°
Reaches altitude 10° 20:04:14 10° 250° (WSW) 7,045 8.2 -26.5°
Maximum altitude 20:22:18 82° 337° (NNW) 1,455 3.7 -30.9°
Enters shadow 20:23:32 66° 49° (NE) 1,388 3.5 -31.2°
